| time (UTC) | temp F | wind direction | speed MPH | gust MPH | rain 1hr in | rain 24hr in | rain mn in | humidity % | barometer mb |
| 20260506001016 | 80 | 0 | 11.0 | 17.0 | 0.00 | 0.00 | 0.00 | 27 | 1006.8 |
| 20260506000016 | 80 | 0 | 10.0 | 18.0 | 0.00 | 0.00 | 0.00 | 29 | 1006.9 |
| 20260505235036 | 79 | 0 | 13.0 | 20.0 | 0.00 | 0.00 | 0.00 | 25 | 1006.8 |
| 20260505234016 | 79 | 0 | 9.0 | 17.0 | 0.00 | 0.00 | 0.00 | 28 | 1006.8 |
| 20260505233016 | 80 | 0 | 12.0 | 17.0 | 0.00 | 0.00 | 0.00 | 28 | 1006.9 |
| 20260505232016 | 80 | 23 | 14.0 | 21.0 | 0.00 | 0.00 | 0.00 | 28 | 1007.1 |
| 20260505231016 | 80 | 338 | 9.0 | 16.0 | 0.00 | 0.00 | 0.00 | 27 | 1007.1 |
| 20260505230016 | 80 | 0 | 7.0 | 14.0 | 0.00 | 0.00 | 0.00 | 29 | 1007.1 |
| 20260505225016 | 80 | 0 | 10.0 | 17.0 | 0.00 | 0.00 | 0.00 | 28 | 1007.1 |
| 20260505224016 | 80 | 0 | 9.0 | 13.0 | 0.00 | 0.00 | 0.00 | 29 | 1007.3 |
| 20260505223116 | 80 | 0 | 9.0 | 16.0 | 0.00 | 0.00 | 0.00 | 28 | 1007.1 |
| 20260505222016 | 81 | 0 | 10.0 | 17.0 | 0.00 | 0.00 | 0.00 | 27 | 1007.3 |
| 20260505221018 | 81 | 338 | 8.0 | 12.0 | 0.00 | 0.00 | 0.00 | 27 | 1007.5 |
| 20260505220016 | 81 | 0 | 6.0 | 12.0 | 0.00 | 0.00 | 0.00 | 29 | 1007.6 |
| 20260505215016 | 80 | 23 | 11.0 | 17.0 | 0.00 | 0.00 | 0.00 | 25 | 1007.7 |
| 20260505214016 | 80 | 0 | 10.0 | 15.0 | 0.00 | 0.00 | 0.00 | 23 | 1008.0 |
| 20260505213016 | 81 | 338 | 9.0 | 15.0 | 0.00 | 0.00 | 0.00 | 26 | 1008.0 |
| 20260505212016 | 80 | 0 | 9.0 | 15.0 | 0.00 | 0.00 | 0.00 | 27 | 1008.0 |
| 20260505211036 | 80 | 23 | 5.0 | 12.0 | 0.00 | 0.00 | 0.00 | 28 | 1008.1 |
| 20260505210015 | 80 | 338 | 6.0 | 12.0 | 0.00 | 0.00 | 0.00 | 27 | 1008.3 |
| 20260505205015 | 80 | 338 | 6.0 | 10.0 | 0.00 | 0.00 | 0.00 | 30 | 1008.3 |
| 20260505204016 | 78 | 338 | 5.0 | 11.0 | 0.00 | 0.00 | 0.00 | 29 | 1008.4 |
| 20260505203037 | 77 | 45 | 3.0 | 6.0 | 0.00 | 0.00 | 0.00 | 31 | 1008.3 |
| 20260505202015 | 77 | 45 | 7.0 | 12.0 | 0.00 | 0.00 | 0.00 | 28 | 1008.3 |
| 20260505201015 | 79 | 23 | 5.0 | 15.0 | 0.00 | 0.00 | 0.00 | 31 | 1008.7 |
| 20260505200016 | 79 | 45 | 3.0 | 10.0 | 0.00 | 0.00 | 0.00 | 30 | 1008.6 |
| 20260505195015 | 79 | 45 | 8.0 | 13.0 | 0.00 | 0.00 | 0.00 | 29 | 1008.7 |
| 20260505194055 | 79 | 338 | 6.0 | 11.0 | 0.00 | 0.00 | 0.00 | 30 | 1008.9 |
| 20260505193039 | 79 | 45 | 9.0 | 15.0 | 0.00 | 0.00 | 0.00 | 29 | 1008.9 |
| 20260505192015 | 78 | 338 | 9.0 | 16.0 | 0.00 | 0.00 | 0.00 | 29 | 1008.9 |
| 20260505191015 | 78 | 0 | 10.0 | 15.0 | 0.00 | 0.00 | 0.00 | 29 | 1008.9 |
| 20260505190017 | 78 | 45 | 8.0 | 12.0 | 0.00 | 0.00 | 0.00 | 28 | 1008.9 |
| 20260505185017 | 77 | 45 | 12.0 | 18.0 | 0.00 | 0.00 | 0.00 | 29 | 1008.9 |
| 20260505184018 | 77 | 45 | 9.0 | 13.0 | 0.00 | 0.00 | 0.00 | 29 | 1008.9 |
| 20260505183036 | 77 | 45 | 13.0 | 19.0 | 0.00 | 0.00 | 0.00 | 27 | 1009.0 |
| 20260505182017 | 77 | 45 | 12.0 | 19.0 | 0.00 | 0.00 | 0.00 | 28 | 1009.2 |
| 20260505181017 | 77 | 45 | 6.0 | 12.0 | 0.00 | 0.00 | 0.00 | 32 | 1009.4 |
| 20260505180017 | 76 | 45 | 6.0 | 10.0 | 0.00 | 0.00 | 0.00 | 32 | 1009.4 |
| 20260505175017 | 76 | 23 | 6.0 | 11.0 | 0.00 | 0.00 | 0.00 | 30 | 1009.4 |
| 20260505174017 | 76 | 23 | 6.0 | 13.0 | 0.00 | 0.00 | 0.00 | 33 | 1009.4 |
| 20260505173017 | 76 | 338 | 7.0 | 11.0 | 0.00 | 0.00 | 0.00 | 32 | 1009.5 |
| 20260505172017 | 76 | 0 | 6.0 | 11.0 | 0.00 | 0.00 | 0.00 | 33 | 1009.4 |
| 20260505171017 | 76 | 45 | 7.0 | 12.0 | 0.00 | 0.00 | 0.00 | 31 | 1009.3 |
| 20260505170017 | 76 | 23 | 6.0 | 12.0 | 0.00 | 0.00 | 0.00 | 34 | 1009.1 |
| 20260505165017 | 75 | 45 | 6.0 | 12.0 | 0.00 | 0.00 | 0.00 | 35 | 1009.0 |
| 20260505164017 | 74 | 45 | 8.0 | 12.0 | 0.00 | 0.00 | 0.00 | 33 | 1009.0 |
| 20260505163017 | 74 | 0 | 6.0 | 11.0 | 0.00 | 0.00 | 0.00 | 34 | 1009.2 |
| 20260505162017 | 74 | 45 | 7.0 | 10.0 | 0.00 | 0.00 | 0.00 | 38 | 1009.2 |
| 20260505161017 | 74 | 45 | 4.0 | 9.0 | 0.00 | 0.00 | 0.00 | 37 | 1009.2 |
| 20260505153017 | 73 | 45 | 4.0 | 8.0 | 0.00 | 0.00 | 0.00 | 41 | 1008.9 |
| 20260505152017 | 71 | 225 | 3.0 | 6.0 | 0.00 | 0.00 | 0.00 | 45 | 1008.7 |
| 20260505151017 | 71 | 180 | 2.0 | 6.0 | 0.00 | 0.00 | 0.00 | 43 | 1008.8 |
| 20260505125017 | 60 | 0.0 | 1.0 | 0.00 | 0.00 | 0.00 | 57 | 1007.0 | |
| 20260505124017 | 62 | 0 | 2.0 | 5.0 | 0.00 | 0.00 | 0.00 | 53 | 1007.2 |
| 20260505123016 | 62 | 338 | 4.0 | 8.0 | 0.00 | 0.00 | 0.00 | 53 | 1007.0 |
| 20260505122017 | 61 | 338 | 4.0 | 7.0 | 0.00 | 0.00 | 0.00 | 53 | 1006.9 |
| 20260505121016 | 62 | 338 | 3.0 | 9.0 | 0.00 | 0.00 | 0.00 | 52 | 1007.0 |
| 20260505120017 | 61 | 338 | 2.0 | 3.0 | 0.00 | 0.00 | 0.00 | 53 | 1006.9 |
| 20260505115017 | 61 | 338 | 1.0 | 3.0 | 0.00 | 0.00 | 0.00 | 52 | 1006.8 |
| 20260505114036 | 59 | 0 | 2.0 | 3.0 | 0.00 | 0.00 | 0.00 | 55 | 1006.6 |
| 20260505113016 | 61 | 0 | 2.0 | 5.0 | 0.00 | 0.00 | 0.00 | 53 | 1006.7 |
| 20260505112016 | 62 | 270 | 3.0 | 5.0 | 0.00 | 0.00 | 0.00 | 51 | 1006.5 |
| 20260505111017 | 62 | 0 | 2.0 | 5.0 | 0.00 | 0.00 | 0.00 | 51 | 1006.4 |
| 20260505102016 | 61 | 0.0 | 1.0 | 0.00 | 0.00 | 0.00 | 51 | 1006.0 | |
| 20260505101016 | 62 | 270 | 1.0 | 2.0 | 0.00 | 0.00 | 0.00 | 50 | 1006.1 |
| 20260505100016 | 62 | 338 | 1.0 | 2.0 | 0.00 | 0.00 | 0.00 | 51 | 1005.9 |
| 20260505095016 | 63 | 270 | 1.0 | 3.0 | 0.00 | 0.00 | 0.00 | 49 | 1005.8 |
| 20260505094016 | 64 | 270 | 1.0 | 3.0 | 0.00 | 0.00 | 0.00 | 47 | 1005.8 |
| 20260505093036 | 64 | 315 | 3.0 | 6.0 | 0.00 | 0.00 | 0.00 | 47 | 1005.7 |
| 20260505092016 | 64 | 315 | 6.0 | 10.0 | 0.00 | 0.00 | 0.00 | 47 | 1005.5 |
| 20260505091016 | 64 | 338 | 6.0 | 10.0 | 0.00 | 0.00 | 0.00 | 46 | 1005.5 |
| 20260505090016 | 64 | 0 | 3.0 | 8.0 | 0.00 | 0.00 | 0.00 | 46 | 1005.6 |
| 20260505085016 | 65 | 338 | 8.0 | 13.0 | 0.00 | 0.00 | 0.00 | 44 | 1005.6 |
| 20260505084016 | 66 | 338 | 8.0 | 12.0 | 0.00 | 0.00 | 0.00 | 43 | 1005.6 |
| 20260505083016 | 66 | 338 | 11.0 | 15.0 | 0.00 | 0.00 | 0.00 | 42 | 1005.8 |
| 20260505082036 | 66 | 338 | 7.0 | 12.0 | 0.00 | 0.00 | 0.00 | 42 | 1005.8 |
| 20260505081016 | 66 | 0 | 7.0 | 14.0 | 0.00 | 0.00 | 0.00 | 42 | 1005.8 |
| 20260505080016 | 66 | 338 | 4.0 | 7.0 | 0.00 | 0.00 | 0.00 | 42 | 1005.8 |
| 20260505075016 | 66 | 338 | 6.0 | 9.0 | 0.00 | 0.00 | 0.00 | 42 | 1005.8 |
| 20260505074036 | 66 | 338 | 6.0 | 10.0 | 0.00 | 0.00 | 0.00 | 42 | 1005.9 |
| 20260505073016 | 66 | 0 | 2.0 | 5.0 | 0.00 | 0.00 | 0.00 | 41 | 1005.9 |
| 20260505072016 | 66 | 0 | 5.0 | 8.0 | 0.00 | 0.00 | 0.00 | 41 | 1005.9 |
| 20260505071017 | 66 | 0 | 5.0 | 7.0 | 0.00 | 0.00 | 0.00 | 40 | 1005.8 |
| 20260505070056 | 66 | 0 | 5.0 | 8.0 | 0.00 | 0.00 | 0.00 | 40 | 1005.7 |
| 20260505065016 | 68 | 23 | 9.0 | 15.0 | 0.00 | 0.00 | 0.00 | 38 | 1005.8 |
| 20260505064016 | 68 | 23 | 9.0 | 16.0 | 0.00 | 0.00 | 0.00 | 37 | 1005.5 |
| 20260505063016 | 68 | 45 | 10.0 | 19.0 | 0.00 | 0.00 | 0.00 | 36 | 1005.5 |
| 20260505062056 | 68 | 45 | 8.0 | 14.0 | 0.00 | 0.00 | 0.00 | 37 | 1005.7 |
| 20260505061016 | 68 | 23 | 7.0 | 15.0 | 0.00 | 0.00 | 0.00 | 36 | 1005.5 |
| 20260505060016 | 69 | 23 | 10.0 | 14.0 | 0.00 | 0.00 | 0.00 | 35 | 1005.3 |
| 20260505055017 | 69 | 23 | 9.0 | 14.0 | 0.00 | 0.00 | 0.00 | 35 | 1005.2 |
| 20260505054037 | 69 | 23 | 7.0 | 12.0 | 0.00 | 0.00 | 0.00 | 34 | 1005.1 |
| 20260505053017 | 69 | 23 | 6.0 | 10.0 | 0.00 | 0.00 | 0.00 | 33 | 1005.0 |
| 20260505052017 | 69 | 0 | 6.0 | 11.0 | 0.00 | 0.00 | 0.00 | 33 | 1004.8 |
| 20260505051017 | 69 | 23 | 7.0 | 12.0 | 0.00 | 0.00 | 0.00 | 34 | 1004.8 |
| 20260505041017 | 71 | 0 | 6.0 | 12.0 | 0.00 | 0.00 | 0.00 | 33 | 1004.1 |
| 20260505040017 | 71 | 0 | 5.0 | 10.0 | 0.00 | 0.00 | 0.00 | 33 | 1004.0 |
| 20260505035017 | 70 | 0 | 3.0 | 9.0 | 0.00 | 0.00 | 0.00 | 34 | 1003.7 |
| 20260505034017 | 70 | 0 | 3.0 | 5.0 | 0.00 | 0.00 | 0.00 | 36 | 1003.4 |
| 20260505033017 | 70 | 0 | 2.0 | 5.0 | 0.00 | 0.00 | 0.00 | 36 | 1003.3 |
| 20260505032017 | 70 | 0 | 2.0 | 5.0 | 0.00 | 0.00 | 0.00 | 37 | 1003.0 |
| 20260505031016 | 71 | 0 | 2.0 | 4.0 | 0.00 | 0.00 | 0.00 | 36 | 1002.7 |
| 20260505030017 | 73 | 0 | 4.0 | 7.0 | 0.00 | 0.00 | 0.00 | 34 | 1002.5 |
| 20260505025017 | 74 | 0 | 5.0 | 9.0 | 0.00 | 0.00 | 0.00 | 32 | 1002.5 |
| 20260505024017 | 75 | 0 | 5.0 | 7.0 | 0.00 | 0.00 | 0.00 | 32 | 1002.6 |
| 20260505023016 | 76 | 0 | 6.0 | 10.0 | 0.00 | 0.00 | 0.00 | 33 | 1002.4 |
| 20260505022016 | 77 | 338 | 7.0 | 12.0 | 0.00 | 0.00 | 0.00 | 32 | 1002.4 |
| 20260505021017 | 77 | 338 | 7.0 | 14.0 | 0.00 | 0.00 | 0.00 | 31 | 1002.2 |
| 20260505020017 | 78 | 338 | 7.0 | 12.0 | 0.00 | 0.00 | 0.00 | 30 | 1002.0 |
| 20260505015016 | 78 | 338 | 7.0 | 13.0 | 0.00 | 0.00 | 0.00 | 30 | 1002.1 |
| 20260505014017 | 79 | 338 | 8.0 | 13.0 | 0.00 | 0.00 | 0.00 | 30 | 1002.3 |
| 20260505013016 | 79 | 338 | 6.0 | 11.0 | 0.00 | 0.00 | 0.00 | 32 | 1002.2 |
| 20260505012016 | 80 | 338 | 5.0 | 11.0 | 0.00 | 0.00 | 0.00 | 33 | 1002.3 |
| 20260505011017 | 80 | 338 | 6.0 | 12.0 | 0.00 | 0.00 | 0.00 | 32 | 1002.0 |
| 20260505010016 | 80 | 338 | 5.0 | 10.0 | 0.00 | 0.00 | 0.00 | 31 | 1002.1 |
| 20260505005016 | 80 | 338 | 6.0 | 11.0 | 0.00 | 0.00 | 0.00 | 31 | 1002.3 |
| 20260505004021 | 81 | 338 | 5.0 | 12.0 | 0.00 | 0.00 | 0.00 | 31 | 1002.5 |
| 20260505003016 | 81 | 315 | 5.0 | 11.0 | 0.00 | 0.00 | 0.00 | 32 | 1002.7 |
| 20260505002016 | 81 | 338 | 6.0 | 11.0 | 0.00 | 0.00 | 0.00 | 30 | 1002.9 |